This is the latest recevied weather packets stored in our database for station/object OK1VCF-5. If no packets are shown the sender has not sent any weather packets the latest 10 day(s).
| Time | Temp. | Humidity | Pressure | Rain* | Wind** | Luminosity | Snow |
|---|---|---|---|---|---|---|---|
| 1777631988 | 20.56° C | 38% | 1032.5 hPa | - | - | - | - |
| 1777631086 | 20° C | 37% | 1032.8 hPa | - | - | - | - |
| 1777630184 | 20° C | 38% | 1033 hPa | - | - | - | - |
| 1777629285 | 20° C | 36% | 1033.2 hPa | - | - | - | - |
| 1777628384 | 20° C | 38% | 1033.2 hPa | - | - | - | - |
| 1777627485 | 19.44° C | 38% | 1033.4 hPa | - | - | - | - |
| 1777626582 | 18.89° C | 38% | 1033.6 hPa | - | - | - | - |
| 1777625682 | 17.78° C | 38% | 1033.6 hPa | - | - | - | - |
| 1777624779 | 17.78° C | 40% | 1033.9 hPa | - | - | - | - |
| 1777623880 | 16.67° C | 41% | 1034 hPa | - | - | - | - |
| 1777622978 | 16.67° C | 39% | 1034 hPa | - | - | - | - |
| 1777622079 | 15.56° C | 43% | 1034.2 hPa | - | - | - | - |
| 1777621178 | 14.44° C | 44% | 1034.2 hPa | - | - | - | - |
| 1777620279 | 13.89° C | 45% | 1034.2 hPa | - | - | - | - |
| 1777619378 | 13.33° C | 51% | 1034.4 hPa | - | - | - | - |
| 1777618476 | 12.22° C | 52% | 1034.4 hPa | - | - | - | - |
| 1777617574 | 11.11° C | 54% | 1034.6 hPa | - | - | - | - |
| 1777616674 | 8.89° C | 58% | 1034.6 hPa | - | - | - | - |
| 1777615773 | 8.33° C | 66% | 1034.8 hPa | - | - | - | - |
| 1777614871 | 5.56° C | 72% | 1034.8 hPa | - | - | - | - |
| 1777613972 | 3.89° C | 76% | 1035 hPa | - | - | - | - |
| 1777613971 | 170.56° C | 76% | 1035 hPa | - | - | - | - |
| 1777613071 | 3.33° C | 78% | 1035.2 hPa | - | - | - | - |
| 1777612170 | 2.22° C | 80% | 1035.2 hPa | - | - | - | - |
| 1777611270 | 1.11° C | 84% | 1035.1 hPa | - | - | - | - |
* Rain since midnight (hover to see other rain measurements)
** Current wind speed in m/s (hover to see current wind gust speed)